Weather observations for the past three days for
El Dorado Captain Jack Thomas Airport
Metric (Imperial)
Date Time (cdt) Wind (kph) Vis. (km) Weather Sky Cond. Temperature (ºC) Relative Humidity Wind Chill (°C) Heat Index (°C) Pressure Precipitation (cm)
Air Dwpt 6 hour altimeter (cm) sea level (mb) 1 hr 3 hr 6 hr
Max. Min.
03 22:55 S 15 16.09 Fair CLR 28 20 62% 30 75.97 0.0
03 22:35 S 17 16.09 Fair CLR 30 20 55% 32 75.97 0.0
03 21:55 S 19 16.09 Fair CLR 30 20 55% 32 75.97 0.0
03 21:35 S 22 G 30 16.09 Fair CLR 31 19 49% 32 75.95 0.0
03 21:15 S 19 16.09 Fair CLR 31 19 49% 32 75.92 0.0
03 20:55 S 17 16.09 Fair CLR 32 19 46% 33 75.92 0.0
03 20:35 S 13 16.09 Fair CLR 32 18 43% 33 75.87 0.0
03 20:15 S 19 16.09 Fair CLR 33 18 41% 34 75.84 0.0
03 19:55 S 19 16.09 Fair CLR 33 18 41% 34 75.84 0.0
03 19:35 S 22 G 31 16.09 Fair CLR 35 17 34% 36 75.82 0.0
03 19:15 S 17 16.09 Fair CLR 36 17 32% 37 75.82 0.0
03 18:55 S 22 G 28 16.09 Fair CLR 36 16 30% 36 75.79 0.0
03 18:35 S 24 16.09 Fair CLR 37 16 29% 37 75.79 0.0
03 18:15 S 26 16.09 Fair CLR 37 17 31% 38 75.79 0.0
03 17:55 S 26 G 39 16.09 Fair CLR 38 16 27% 39 75.79 0.0
03 17:35 S 28 16.09 Fair CLR 38 16 27% 39 75.79 0.0
03 17:15 S 20 G 33 16.09 Fair CLR 38 16 27% 39 75.79 0.0
03 16:55 S 22 G 30 16.09 Fair CLR 38 16 27% 39 75.79 0.0
03 16:35 S 20 G 30 16.09 Fair CLR 38 16 27% 39 75.82 0.0
03 16:15 S 22 G 30 16.09 Fair CLR 38 16 27% 39 75.82 0.0
03 15:55 S 26 G 35 16.09 Fair CLR 39 16 26% 40 75.84 0.0
03 15:35 S 20 G 26 16.09 Fair CLR 38 15 25% 38 75.84 0.0
03 15:15 S 26 G 31 16.09 Fair CLR 38 15 25% 38 75.87 0.0
03 14:55 S 26 16.09 Fair CLR 38 16 27% 39 75.87 0.0
03 14:35 S 24 G 33 16.09 Fair CLR 38 17 29% 39 75.9 0.0
03 14:15 S 24 G 31 16.09 Fair CLR 37 16 29% 37 75.92 0.0
03 13:55 S 20 G 35 16.09 Fair CLR 37 16 29% 37 75.92 0.0
03 13:35 SW 26 G 33 16.09 Fair CLR 37 17 31% 38 75.97 0.0
03 13:15 S 26 16.09 Fair CLR 36 17 32% 37 76 0.0
03 12:55 S 26 G 37 16.09 Fair CLR 36 18 34% 37 76.02 0.0
03 12:35 S 22 16.09 Fair CLR 36 18 34% 37 76.02 0.0
03 12:15 S 26 G 33 16.09 Fair CLR 35 18 36% 36 76.05 0.0
03 11:55 S 26 G 43 16.09 Fair CLR 34 18 39% 35 76.07 0.0
03 11:35 S 33 16.09 Fair and Breezy CLR 34 18 39% 35 76.07 0.0
03 11:15 S 24 16.09 Fair CLR 33 18 41% 34 76.07 0.0
03 10:55 S 28 16.09 Fair CLR 32 19 46% 33 76.07 0.0
03 10:35 S 30 G 35 16.09 Fair CLR 32 20 49% 34 76.07 0.0
03 10:15 S 28 G 37 16.09 Partly Cloudy SCT002 31 20 52% 33 76.07 0.0
03 09:55 S 28 G 37 16.09 Partly Cloudy SCT002 31 20 52% 33 76.07 0.0
03 09:35 S 30 16.09 Mostly Cloudy BKN002 30 20 55% 32 76.1 0.0
03 09:15 S 28 G 43 16.09 Overcast OVC002 29 20 58% 31 76.1 0.0
03 08:55 S 28 G 37 16.09 Overcast OVC002 28 20 62% 30 76.12 0.0
03 08:35 S 22 16.09 Overcast OVC002 28 20 62% 30 76.1 0.0
03 08:15 S 22 16.09 Overcast OVC002 27 20 66% 29 76.1 0.0
03 07:55 S 20 16.09 Overcast OVC002 26 20 70% 27 76.1 0.0
03 07:35 S 19 16.09 Overcast OVC002 26 20 70% 27 76.07 0.0
03 07:15 S 19 16.09 Overcast OVC002 25 19 69% 26 76.07 0.0
03 06:55 S 17 16.09 Overcast OVC002 25 19 69% 26 76.05 0.0
03 06:35 S 15 16.09 Overcast OVC002 25 18 65% 26 76.05 0.0
03 06:15 S 15 16.09 Overcast OVC002 25 18 65% 26 76.05 0.0
03 05:55 S 13 16.09 Overcast OVC002 25 18 65% 26 76.02 0.0
03 05:35 S 13 16.09 Overcast OVC002 26 18 61% 27 76.05 0.0
03 05:15 S 15 16.09 Overcast OVC002 27 18 58% 28 76.02 0.0
03 04:55 S 15 16.09 Overcast OVC002 27 18 58% 28 76.02 0.0
03 04:35 S 15 16.09 Overcast OVC002 27 18 58% 28 76.02 0.0
03 04:15 S 15 16.09 Overcast OVC002 27 18 58% 28 76.02 0.0
03 03:55 S 17 16.09 Overcast OVC002 27 18 58% 28 76.02 0.0
03 03:35 S 17 16.09 Overcast OVC002 28 17 51% 29 76.02 0.0
03 03:15 S 19 16.09 Overcast OVC002 28 17 51% 29 76.02 0.0
03 02:55 S 20 G 28 16.09 Overcast OVC002 28 17 51% 29 76 0.0
03 02:35 S 17 G 26 16.09 Overcast OVC002 28 17 51% 29 76 0.0
03 02:15 S 19 16.09 Overcast OVC002 28 16 48% 28 76 0.0
03 01:55 S 15 16.09 Overcast OVC002 28 16 48% 28 76 0.0
03 01:35 S 15 16.09 Overcast OVC002 28 16 48% 28 76 0.0
03 01:15 S 17 16.09 Overcast OVC002 28 16 48% 28 76 0.0
03 00:55 S 15 16.09 Overcast OVC002 28 16 48% 28 76 0.0
03 00:35 S 13 16.09 Overcast OVC002 29 16 45% 29 76 0.0
03 00:15 S 15 16.09 Overcast OVC002 29 16 45% 29 76 0.0
02 23:55 S 17 16.09 Overcast OVC002 29 16 45% 29 76 0.0
02 23:35 S 17 16.09 Overcast OVC002 29 16 45% 29 76 0.0
02 23:15 S 17 16.09 Overcast OVC002 29 16 45% 29 76 0.0
02 22:55 SE 17 16.09 Overcast OVC002 30 16 43% 30 76 0.0
02 22:35 SE 19 16.09 Overcast OVC002 30 16 43% 30 76 0.0
02 22:15 SE 19 16.09 Overcast OVC002 30 16 43% 30 76 0.0
02 21:55 SE 13 16.09 Overcast OVC002 30 16 43% 30 76 0.0
02 21:35 SE 13 16.09 Overcast OVC002 30 16 43% 30 76 0.0
02 21:15 SE 13 16.09 Overcast OVC002 31 16 40% 31 75.97 0.0
02 20:55 SE 11 16.09 Overcast OVC002 31 16 40% 31 75.95 0.0
02 20:35 SE 11 16.09 Overcast OVC002 31 16 40% 31 75.92 0.0
02 20:15 S 11 11.27 Overcast OVC002 32 16 38% 32 75.92 0.0
02 19:55 S 9 16.09 Overcast OVC002 33 15 34% 33 75.92 0.0
02 19:35 S 13 16.09 Overcast OVC002 35 15 30% 35 75.92 0.0
02 19:15 S 17 16.09 Overcast OVC002 36 15 28% 36 75.92 0.0
02 18:55 S 19 16.09 Overcast OVC002 37 14 25% 36 75.92 0.0
02 18:15 S 19 16.09 Overcast BKN002 OVC085 38 14 24% 38 75.92 0.0
02 17:55 S 19 G 33 16.09 Overcast BKN002 OVC085 38 14 24% 38 75.92 0.0
02 17:35 S 20 16.09 Overcast OVC002 37 14 25% 36 75.92 0.0
02 17:15 S 19 16.09 Overcast OVC002 37 14 25% 36 75.95 0.0
02 16:55 S 17 G 31 16.09 Overcast BKN002 OVC090 40 13 20% 39 75.95 0.0
02 16:35 S 20 G 33 16.09 Overcast OVC002 39 13 21% 38 75.95 0.0
02 16:15 SW 28 16.09 Overcast OVC002 40 13 20% 39 75.97 0.0
02 15:55 SW 24 G 33 16.09 Overcast BKN002 OVC090 40 12 19% 39 76 0.0
02 15:35 S 22 G 31 16.09 Overcast OVC002 40 13 20% 39 76 0.0
02 15:15 S 24 G 31 16.09 Overcast OVC002 39 14 23% 39 76.02 0.0
02 14:55 S 20 G 33 16.09 Overcast BKN002 OVC080 39 15 24% 39 76.05 0.0
02 14:35 S 22 G 33 16.09 Overcast BKN002 OVC080 37 15 27% 37 76.07 0.0
02 14:15 S 24 G 30 16.09 Overcast OVC002 39 15 24% 39 76.1 0.0
02 13:55 SW 17 G 31 16.09 Overcast OVC002 38 15 25% 38 76.1 0.0
02 13:35 SW 13 G 31 16.09 Overcast OVC002 38 16 27% 39 76.12 0.0
02 13:15 S 26 G 41 16.09 Overcast BKN002 OVC070 38 16 27% 39 76.15 0.0
02 12:55 S 22 G 31 16.09 Overcast OVC002 38 16 27% 39 76.17 0.0
02 12:35 SW 22 G 31 16.09 Overcast OVC002 37 17 31% 38 76.17 0.0
02 12:15 S 30 G 37 16.09 Overcast OVC002 37 17 31% 38 76.2 0.0
02 11:55 SW 17 16.09 Overcast OVC002 36 18 34% 37 76.2 0.0
02 11:35 S 26 16.09 Overcast OVC002 36 17 32% 37 76.23 0.0
02 11:15 SW 26 G 35 16.09 Overcast OVC002 35 18 36% 36 76.25 0.0
02 10:55 S 26 16.09 Overcast OVC002 35 18 36% 36 76.25 0.0
02 10:35 SW 22 G 31 16.09 Overcast OVC002 35 18 36% 36 76.25 0.0
02 10:15 SW 24 G 35 16.09 Overcast OVC002 33 18 41% 34 76.25 0.0
02 09:55 SW 26 16.09 Overcast OVC002 33 18 41% 34 76.25 0.0
02 09:35 S 24 G 30 16.09 Overcast OVC002 32 18 43% 33 76.25 0.0
02 09:15 S 19 G 28 16.09 Overcast OVC002 31 18 46% 32 76.25 0.0
02 08:55 S 20 16.09 Overcast OVC002 30 18 49% 31 76.25 0.0
02 08:35 S 20 G 28 16.09 Overcast OVC002 28 18 55% 29 76.25 0.0
02 08:15 S 20 16.09 Overcast OVC002 28 18 55% 29 76.25 0.0
02 07:55 S 15 16.09 Overcast OVC002 27 18 58% 28 76.23 0.0
02 07:35 S 17 16.09 Overcast OVC002 26 17 58% 27 76.23 0.0
02 07:15 S 15 16.09 Overcast OVC002 26 17 58% 27 76.2 0.0
02 06:55 S 15 16.09 Overcast OVC002 26 17 58% 27 76.2 0.0
02 06:35 S 13 16.09 Overcast OVC002 26 17 58% 27 76.17 0.0
02 06:15 S 15 16.09 Overcast OVC002 26 17 58% 27 76.17 0.0
02 05:55 S 13 16.09 Overcast OVC002 25 17 61% 26 76.17 0.0
02 05:35 S 13 16.09 Overcast OVC002 26 17 58% 27 76.17 0.0
02 05:15 S 15 16.09 Overcast OVC002 25 17 61% 26 76.15 0.0
02 04:55 S 11 16.09 Overcast OVC002 26 16 54% 27 76.15 0.0
02 04:35 S 11 16.09 Overcast OVC002 26 16 54% 27 76.15 0.0
02 04:15 S 13 16.09 Overcast OVC002 26 16 54% 27 76.15 0.0
02 03:55 S 13 16.09 Overcast OVC002 27 16 51% 27 76.15 0.0
02 03:35 S 13 16.09 Overcast OVC002 27 16 51% 27 76.12 0.0
02 03:15 S 11 16.09 Overcast OVC002 26 16 54% 27 76.12 0.0
02 02:55 S 11 16.09 Overcast OVC002 26 16 54% 27 76.12 0.0
02 02:35 S 13 16.09 Overcast OVC002 27 16 51% 27 76.12 0.0
02 02:15 S 13 16.09 Overcast OVC002 27 16 51% 27 76.12 0.0
02 01:55 S 13 16.09 Overcast OVC002 27 16 51% 27 76.15 0.0
02 01:35 S 13 16.09 Overcast OVC002 27 16 51% 27 76.15 0.0
02 01:15 S 11 16.09 Overcast OVC002 27 16 51% 27 76.12 0.0
02 00:55 S 13 16.09 Overcast OVC002 27 16 51% 27 76.12 0.0
02 00:35 S 13 16.09 Overcast OVC002 27 16 51% 27 76.12 0.0
02 00:15 S 13 16.09 Overcast OVC002 27 16 51% 27 76.12 0.0
01 23:55 S 15 16.09 Overcast OVC002 27 16 51% 27 76.15 0.0
01 23:35 S 13 16.09 Overcast OVC002 27 16 51% 27 76.12 0.0
01 23:15 SE 15 16.09 Overcast OVC002 28 15 45% 28 76.12 0.0
01 22:55 SE 13 16.09 Overcast OVC002 28 15 45% 28 76.12 0.0
01 22:35 SE 15 16.09 Overcast OVC002 29 15 43% 29 76.12 0.0
01 22:15 S 13 16.09 Overcast OVC002 28 15 45% 28 76.12 0.0
01 21:55 S 11 16.09 Overcast OVC002 28 15 45% 28 76.12 0.0
01 21:35 SE 13 16.09 Overcast OVC002 29 14 40% 29 76.1 0.0
01 21:15 SE 13 11.27 Overcast OVC002 30 14 38% 29 76.07 0.0
01 20:55 SE 13 4.83 Overcast with Haze OVC002 30 13 35% 29 76.05 0.0
01 20:35 SE 13 4.02 Overcast with Haze OVC002 31 13 33% 30 76.05 0.0
01 20:15 S 11 16.09 Overcast OVC002 31 13 33% 30 76.05 0.0
01 19:55 S 11 16.09 Overcast OVC002 33 12 28% 32 76.05 0.0
01 19:35 S 13 16.09 Overcast OVC002 35 12 25% 34 76.05 0.0
01 19:15 S 19 16.09 Overcast OVC002 36 12 23% 35 76.05 0.0
01 18:55 S 20 16.09 Overcast OVC002 36 12 23% 35 76.05 0.0
01 18:35 S 20 16.09 Overcast OVC002 37 11 21% 36 76.07 0.0
01 18:15 S 19 16.09 Overcast OVC002 37 11 21% 36 76.07 0.0
01 17:55 S 24 G 31 16.09 Overcast OVC002 38 11 20% 37 76.05 0.0
01 17:35 S 19 G 30 16.09 Overcast OVC002 38 11 20% 37 76.07 0.0
01 17:15 S 17 G 33 16.09 Overcast OVC002 38 11 20% 37 76.07 0.0
01 16:55 S 22 G 30 16.09 Overcast OVC002 38 11 20% 37 76.07 0.0
01 16:35 S 24 G 35 16.09 Overcast OVC002 38 11 20% 37 76.07 0.0
01 16:15 S 17 16.09 Overcast OVC002 39 11 18% 38 76.1 0.0
01 15:55 S 17 G 33 16.09 Overcast OVC002 40 11 17% 39 76.1 0.0
01 15:35 SW 20 G 33 16.09 Overcast OVC002 40 11 17% 39 76.12 0.0
01 15:15 SW 26 G 37 16.09 Overcast OVC002 39 11 18% 38 76.15 0.0
01 14:55 SW 30 16.09 Overcast OVC002 39 11 18% 38 76.17 0.0
01 14:35 S 26 G 39 16.09 Overcast OVC002 39 11 18% 38 76.17 0.0
01 14:15 S 20 G 33 16.09 Overcast BKN002 OVC090 37 11 21% 36 76.2 0.0
01 13:55 SW 22 G 35 16.09 Overcast BKN002 OVC090 38 11 20% 37 76.2 0.0
01 13:35 SW 30 G 37 16.09 Overcast OVC002 38 11 20% 37 76.23 0.0
01 13:15 S 24 16.09 Overcast OVC002 38 11 20% 37 76.23 0.0
01 12:55 SW 22 G 37 16.09 Overcast OVC002 38 12 21% 37 76.23 0.0
01 12:35 S 24 G 39 16.09 Overcast OVC002 38 13 22% 37 76.25 0.0
01 12:15 SW 22 G 35 16.09 Overcast OVC002 37 13 24% 36 76.28 0.0
01 11:55 SW 31 16.09 Overcast OVC002 38 13 22% 37 76.28 0.0
01 11:35 SW 24 G 39 16.09 Overcast OVC002 37 14 25% 36 76.3 0.0
01 11:15 SW 24 G 35 16.09 Overcast OVC002 36 14 27% 35 76.3 0.0
01 10:55 SW 22 G 35 16.09 Overcast OVC002 36 14 27% 35 76.3 0.0
01 10:35 S 24 G 35 16.09 Overcast OVC002 35 14 28% 34 76.3 0.0
01 10:15 SW 26 G 35 16.09 Overcast OVC002 35 15 30% 35 76.3 0.0
01 09:55 SW 22 16.09 Overcast OVC002 33 15 34% 33 76.3 0.0
01 09:35 SW 22 16.09 Overcast OVC002 33 15 34% 33 76.3 0.0
01 09:15 SW 17 16.09 Overcast OVC002 32 15 36% 32 76.3 0.0
01 08:55 S 15 16.09 Overcast OVC002 30 14 38% 29 76.33 0.0
01 08:35 S 17 16.09 Overcast OVC002 29 15 43% 29 76.33 0.0
01 08:15 S 13 16.09 Overcast OVC002 27 15 48% 27 76.33 0.0
01 07:55 S 15 16.09 Overcast OVC002 26 15 51% 27 76.33 0.0
01 07:35 S 11 16.09 Overcast OVC002 23 15 61% 76.3 0.0
01 07:15 S 11 16.09 Overcast OVC002 22 15 65% 76.28 0.0
01 06:55 S 9 16.09 Overcast OVC002 22 15 65% 76.28 0.0
01 06:35 S 11 16.09 Overcast OVC002 22 15 65% 76.28 0.0
01 06:15 S 9 16.09 Overcast OVC002 23 15 61% 76.25 0.0
01 05:55 S 11 16.09 Overcast OVC002 22 15 65% 76.25 0.0
01 05:35 S 13 16.09 Overcast OVC002 22 15 65% 76.25 0.0
01 05:15 S 11 16.09 Overcast OVC002 22 15 65% 76.23 0.0
01 04:55 S 11 16.09 Overcast OVC002 23 15 61% 76.23 0.0
01 04:35 S 9 16.09 Overcast OVC004 23 15 61% 76.23 0.0
01 04:15 S 9 16.09 Overcast OVC004 23 15 61% 76.2 0.0
01 03:55 S 11 16.09 Overcast OVC004 24 15 57% 25 76.2 0.0
01 03:35 S 11 16.09 Overcast OVC004 24 15 57% 25 76.17 0.0
01 03:15 S 13 16.09 Mostly Cloudy BKN004 25 15 54% 26 76.17 0.0
01 02:55 S 11 16.09 Partly Cloudy SCT004 25 15 54% 26 76.17 0.0
01 02:35 S 9 16.09 Partly Cloudy SCT004 25 15 54% 26 76.17 0.0
01 02:15 S 11 16.09 Partly Cloudy SCT004 25 15 54% 26 76.17 0.0
01 01:55 S 9 16.09 Partly Cloudy SCT003 25 15 54% 26 76.2 0.0
01 01:35 S 11 16.09 Fair CLR 25 15 54% 26 76.2 0.0
01 01:15 S 11 16.09 Fair CLR 25 15 54% 26 76.2 0.0
01 00:55 S 11 16.09 Fair CLR 26 15 51% 27 76.2 0.0
01 00:35 S 11 16.09 Fair CLR 26 15 51% 27 76.2 0.0
01 00:15 S 11 16.09 Fair CLR 27 15 48% 27 76.2 0.0
31 23:55 S 11 16.09 Partly Cloudy SCT003 27 15 48% 27 76.2 0.0
31 23:35 S 11 16.09 Partly Cloudy SCT003 27 15 48% 27 76.17 0.0
31 23:15 S 13 16.09 Fair CLR 28 15 45% 28 76.17 0.0
Date Time (cdt) Wind (kph) Vis. (km) Weather Sky Cond. Air Dwpt Max. Min. Relative Humidity Wind Chill (°C) Heat Index (°C) altimeter (cm) sea level (mb) 1 hr 3 hr 6 hr
6 hour
Temperature (ºC) Pressure Precipitation (cm)